Lacon, IL

12:41 AM CST on December 16, 2017 (GMT -0600)
Lacon

Weather History for KC75 - April, 2014

Change the Weather History Date:

Thursday, April 10, 2014

  Actual Average (KVYS) Record (KVYS)
Temperature  
Mean Temperature 52 °F -  
Max Temperature 63 °F 59 °F 84 °F (2011)
Min Temperature 41 °F 34 °F 20 °F (1989)
Degree Days  
Heating Degree Days 13    
Growing Degree Days 2 (Base 50)    
Moisture  
Dew Point 35 °F    
Average Humidity 46    
Maximum Humidity 67    
Minimum Humidity 30    
Precipitation  
Precipitation 0.00 in - - ()
Sea Level Pressure  
Sea Level Pressure 29.81 in    
Wind  
Wind Speed 12 mph (WSW)    
Max Wind Speed 18 mph    
Max Gust Speed 26 mph    
Visibility 10 miles    
Events      
Averages and records for this station are not official NWS values.
T = Trace of Precipitation, MM = Missing Value Source: NWS Daily Summary

Daily Weather History Graph

Daily Weather History Graph

Search for Another Location

Airport or City:

Trip Planner

Search our weather history database for the weather conditions in past years. The results will help you decide how hot, cold, wet, or windy it might be!

Date:

Astronomy

Apr. 10, 2014 Rise Set
Actual Time 6:26 AM CDT 7:31 PM CDT
Civil Twilight 5:57 AM CDT 8:00 PM CDT
Nautical Twilight 5:24 AM CDT 8:33 PM CDT
Astronomical Twilight 4:49 AM CDT 9:09 PM CDT
Moon 3:13 PM CDT (4/10) 3:51 AM CDT (4/10)
Length of Visible Light 14h 02m
Length of Day
13h 05m
Waxing Gibbous, 80% of the Moon is Illuminated
Apr 10
Waxing Gibbous
Apr 15
Full
Apr 22
Last Quarter
Apr 29
New
May 6
First Quarter

Hourly Weather History & Observations

Time (CDT) Temp. Dew Point Humidity Pressure Visibility Wind Dir Wind Speed Gust Speed Precip Events Conditions
12:15 AM 54.7 °F 32.0 °F 42% 29.85 in 10.0 mi SSW 13.8 mph 17.3 mph N/A   Clear
12:35 AM 55.0 °F 32.0 °F 42% 29.84 in 10.0 mi SSW 11.5 mph 19.6 mph N/A   Clear
12:55 AM 54.7 °F 32.0 °F 42% 29.83 in 10.0 mi SSW 13.8 mph 19.6 mph N/A   Clear
1:15 AM 54.7 °F 32.4 °F 43% 29.82 in 10.0 mi SSW 15.0 mph 21.9 mph N/A   Clear
1:35 AM 54.3 °F 32.5 °F 44% 29.81 in 10.0 mi SSW 16.1 mph 21.9 mph N/A   Clear
1:55 AM 54.5 °F 32.5 °F 43% 29.80 in 10.0 mi SSW 13.8 mph - N/A   Clear
2:15 AM 54.1 °F 32.9 °F 45% 29.79 in 10.0 mi SSW 16.1 mph 21.9 mph N/A   Clear
2:35 AM 54.5 °F 33.1 °F 44% 29.79 in 10.0 mi SSW 15.0 mph 21.9 mph N/A   Clear
2:55 AM 55.0 °F 32.9 °F 43% 29.78 in 10.0 mi SSW 18.4 mph 25.3 mph N/A   Clear
3:15 AM 55.0 °F 32.9 °F 43% 29.77 in 10.0 mi SSW 17.3 mph 25.3 mph N/A   Clear
3:35 AM 55.0 °F 32.9 °F 43% 29.76 in 10.0 mi SSW 18.4 mph 26.5 mph N/A   Clear
3:55 AM 54.9 °F 32.9 °F 43% 29.75 in 10.0 mi SSW 15.0 mph 24.2 mph N/A   Clear
4:15 AM 54.5 °F 33.4 °F 45% 29.74 in 10.0 mi SSW 15.0 mph 23.0 mph N/A   Clear
4:35 AM 54.7 °F 33.8 °F 45% 29.73 in 10.0 mi SSW 15.0 mph 23.0 mph N/A   Clear
4:55 AM 54.5 °F 34.0 °F 46% 29.73 in 10.0 mi SSW 16.1 mph 23.0 mph N/A   Clear
5:15 AM 54.5 °F 34.7 °F 47% 29.72 in 10.0 mi SSW 17.3 mph 24.2 mph N/A   Clear
5:35 AM 54.5 °F 34.7 °F 47% 29.71 in 10.0 mi SSW 15.0 mph 20.7 mph N/A   Clear
5:55 AM 54.7 °F 35.1 °F 48% 29.71 in 10.0 mi SSW 15.0 mph 23.0 mph N/A   Clear
6:15 AM 54.7 °F 35.6 °F 49% 29.71 in 10.0 mi SSW 16.1 mph 20.7 mph N/A   Clear
6:35 AM 54.3 °F 36.1 °F 50% 29.71 in 10.0 mi SSW 12.7 mph 18.4 mph N/A   Clear
6:55 AM 54.7 °F 36.5 °F 50% 29.71 in 10.0 mi SSW 17.3 mph 24.2 mph N/A   Clear
7:15 AM 55.4 °F 37.4 °F 51% 29.72 in 10.0 mi SSW 13.8 mph 21.9 mph N/A   Clear
7:35 AM 55.0 °F 37.4 °F 51% 29.73 in 10.0 mi SSW 18.4 mph 23.0 mph N/A   Clear
7:55 AM 55.2 °F 37.9 °F 52% 29.73 in 10.0 mi SSW 15.0 mph 23.0 mph N/A   Clear
8:15 AM 55.4 °F 38.3 °F 53% 29.73 in 10.0 mi SSW 15.0 mph 25.3 mph N/A   Clear
8:35 AM 55.6 °F 38.3 °F 52% 29.73 in 10.0 mi SSW 15.0 mph 24.2 mph N/A   Clear
8:55 AM 56.3 °F 38.5 °F 51% 29.72 in 10.0 mi SSW 17.3 mph 25.3 mph N/A   Clear
9:15 AM 57.9 °F 39.4 °F 50% 29.71 in 10.0 mi SSW 17.3 mph 25.3 mph N/A   Clear
9:35 AM 57.2 °F 39.2 °F 51% 29.72 in 10.0 mi SSW 16.1 mph - N/A   Clear
9:55 AM 57.2 °F 39.9 °F 52% 29.73 in 10.0 mi SSW 11.5 mph - N/A   Clear
10:15 AM 56.8 °F 40.1 °F 54% 29.73 in 10.0 mi SSW 9.2 mph - N/A   Clear
10:35 AM 57.7 °F 40.6 °F 53% 29.74 in 10.0 mi SSW 8.1 mph - N/A   Clear
10:55 AM 59.0 °F 41.0 °F 51% 29.75 in 10.0 mi SW 8.1 mph - N/A   Clear
11:15 AM 60.4 °F 40.6 °F 48% 29.76 in 10.0 mi SW 8.1 mph - N/A   Clear
11:35 AM 62.2 °F 41.0 °F 46% 29.74 in 10.0 mi South 5.8 mph - N/A   Clear
11:55 AM 62.4 °F 41.4 °F 46% 29.75 in 10.0 mi West 11.5 mph 18.4 mph N/A   Clear
12:15 PM 62.6 °F 41.9 °F 47% 29.75 in 10.0 mi WNW 12.7 mph 17.3 mph N/A   Clear
12:35 PM 62.6 °F 41.7 °F 46% 29.75 in 10.0 mi WNW 3.5 mph - N/A   Clear
12:55 PM 62.6 °F 41.4 °F 46% 29.76 in 10.0 mi WSW 8.1 mph - N/A   Clear
1:15 PM 63.0 °F 41.9 °F 46% 29.79 in 10.0 mi West 10.4 mph - N/A   Clear
1:35 PM 62.8 °F 41.9 °F 46% 29.78 in 10.0 mi WNW 4.6 mph - N/A   Clear
1:55 PM 62.8 °F 41.7 °F 46% 29.78 in 10.0 mi WNW 4.6 mph - N/A   Clear
2:15 PM 63.3 °F 42.3 °F 46% 29.79 in 10.0 mi WNW 4.6 mph - N/A   Clear
2:35 PM 63.5 °F 40.5 °F 43% 29.78 in 10.0 mi NNW 11.5 mph - N/A   Clear
2:55 PM 63.0 °F 39.9 °F 43% 29.79 in 10.0 mi North 6.9 mph 10.4 mph N/A   Clear
3:15 PM 63.5 °F 41.0 °F 44% 29.81 in 10.0 mi Calm Calm - N/A   Clear
3:35 PM 63.5 °F 39.0 °F 41% 29.83 in 10.0 mi WNW 9.2 mph - N/A   Clear
3:55 PM 63.5 °F 38.1 °F 39% 29.82 in 10.0 mi WNW 6.9 mph - N/A   Clear
4:15 PM 63.5 °F 37.9 °F 39% 29.82 in 10.0 mi NW 5.8 mph - N/A   Clear
4:35 PM 63.7 °F 37.4 °F 38% 29.82 in 10.0 mi NW 5.8 mph - N/A   Clear
4:55 PM 63.5 °F 37.2 °F 38% 29.83 in 10.0 mi NW 10.4 mph - N/A   Clear
5:15 PM 62.8 °F 33.1 °F 33% 29.85 in 10.0 mi WNW 6.9 mph - N/A   Clear
5:35 PM 62.6 °F 30.6 °F 30% 29.85 in 10.0 mi WNW 9.2 mph - N/A   Clear
5:55 PM 61.9 °F 31.3 °F 32% 29.86 in 10.0 mi NW 9.2 mph - N/A   Clear
6:15 PM 61.3 °F 30.2 °F 31% 29.87 in 10.0 mi WNW 8.1 mph - N/A   Clear
6:35 PM 60.6 °F 31.1 °F 33% 29.88 in 10.0 mi WNW 4.6 mph - N/A   Clear
6:55 PM 60.3 °F 30.4 °F 32% 29.88 in 10.0 mi WNW 3.5 mph - N/A   Clear
7:15 PM 59.4 °F 30.9 °F 34% 29.88 in 10.0 mi West 4.6 mph - N/A   Clear
7:35 PM 58.3 °F 30.4 °F 35% 29.89 in 10.0 mi WNW 5.8 mph - N/A   Clear
7:55 PM 56.8 °F 31.1 °F 38% 29.90 in 10.0 mi WNW 5.8 mph - N/A   Scattered Clouds
8:15 PM 56.5 °F 30.7 °F 38% 29.91 in 10.0 mi NW 11.5 mph - N/A   Scattered Clouds
8:35 PM 53.6 °F 30.6 °F 41% 29.91 in 10.0 mi NW 5.8 mph - N/A   Clear
8:55 PM 51.8 °F 30.2 °F 44% 29.93 in 10.0 mi NW 5.8 mph - N/A   Clear
9:15 PM 51.1 °F 30.0 °F 44% 29.93 in 10.0 mi NW 3.5 mph - N/A   Clear
9:35 PM 48.4 °F 29.7 °F 48% 29.93 in 10.0 mi Calm Calm - N/A   Clear
9:55 PM 47.3 °F 30.0 °F 51% 29.95 in 10.0 mi NW 3.5 mph - N/A   Clear
10:15 PM 44.2 °F 29.7 °F 57% 29.95 in 10.0 mi Calm Calm - N/A   Clear
10:35 PM 41.2 °F 31.1 °F 67% 29.95 in 10.0 mi Calm Calm - N/A   Clear
10:55 PM 42.3 °F 30.2 °F 62% 29.95 in 10.0 mi Calm Calm - N/A   Clear
11:15 PM 43.0 °F 30.4 °F 61% 29.96 in 10.0 mi Calm Calm - N/A   Clear
11:35 PM 43.0 °F 30.2 °F 61% 29.97 in 10.0 mi Calm Calm - N/A   Clear
11:55 PM 41.0 °F 30.7 °F 67% 29.98 in 10.0 mi Calm Calm - N/A   Clear